"2009-03-30 00:00:00",754898,5.656,292.9,3.783,0.28,13.29,105.8198,14.17,15.25,12.5,0,110.5,13.29,14.97,254.9
"2009-03-30 00:00:30",754899,5.406,290.9,2.548,0.331,13.55,105.8146,14.16,15.24,12.4,0,110.5,13.29,14.96,252.9
"2009-03-30 00:01:00",754900,5.755,294.1,3.752,0.659,13.67,105.8167,14.16,15.22,12.79,0,110.4,13.29,14.96,256.1
"2009-03-30 00:01:30",754901,5.022,288.2,3.606,0.236,13.81,105.8012,14.12,15.2,13.21,0,110.5,13.29,14.93,250.2
"2009-03-30 00:02:00",754902,6.585,298.5,7.727,1.63,15.83,105.7873,14.09,15.31,12.89,0,110.4,13.26,14.89,260.5
"2009-03-30 00:02:30",754903,6.036,290.2,12.05,1.385,15.67,105.7927,14.1,15.33,12.96,0,110.5,13.26,14.90,252.2
"2009-03-30 00:03:00",754904,6.492,295.6,8.58,1.601,15.51,105.7964,14.11,15.23,12.84,0,110.4,13.26,14.91,257.6
"2009-03-30 00:03:30",754905,5.452,293.7,5.818,1.218,14.63,105.7759,14.06,15.32,13.09,0,110.4,13.26,14.86,255.7
"2009-03-30 00:04:00",754906,4.737,289.1,2.039,0.371,12.69,105.772,14.05,15.11,12.95,0,110.4,13.3,14.85,251.1
"2009-03-30 00:04:30",754907,4.712,289.3,8.03,1.445,14.35,105.7726,14.05,15.15,13.08,0,110.5,13.26,14.85,251.3
"2009-03-30 00:05:00",754908,4.554,292.7,8.64,1.35,14.53,105.7753,14.06,15.24,13.29,0,110.4,13.26,14.86,254.7
"2009-03-30 00:05:30",754909,3.879,294,2.952,0.284,12.48,105.7724,14.05,15.07,13.02,0,110.4,13.3,14.85,256.0
"2009-03-30 00:06:00",754910,4.993,296.5,5.014,0.53,12.51,105.7519,14,15.04,12.68,0,110.4,13.3,14.80,258.5
"2009-03-30 00:06:30",754911,7.253,312.1,7.857,1.471,14.73,105.7471,13.99,15.21,13.06,0,110.4,13.27,14.79,274.1
"2009-03-30 00:07:00",754912,6.058,303.6,1.412,0.151,12.77,105.7471,13.99,15.1,13.23,0,110.4,13.31,14.79,265.6
"2009-03-30 00:07:30",754913,6.023,303.8,1.214,0.099,12.66,105.7471,13.99,14.99,13.21,0,110.4,13.31,14.79,265.8
"2009-03-30 00:08:00",754914,6.141,300.3,1.604,0.225,12.6,105.7471,13.99,14.99,13.49,0,110.4,13.31,14.79,262.3
"2009-03-30 00:08:30",754915,5.944,307.5,2.137,0.208,12.44,105.7454,13.98,14.98,13.96,0,110.4,13.31,14.78,269.5
"2009-03-30 00:09:00",754916,5.461,306.1,5.1,0.255,12.6,105.7356,13.96,15.03,14.67,0,110.4,13.31,14.76,268.1
"2009-03-30 00:09:30",754917,6.102,318.5,7.23,1.244,14.63,105.7198,13.92,15.03,15.53,0,110.4,13.27,14.72,280.5
"2009-03-30 00:10:00",754918,5.595,322.4,8.52,1.091,14.3,105.7133,13.9,15.27,16.51,0,110.4,13.27,14.70,284.4
"2009-03-30 00:10:30",754919,6.459,328.2,5.597,1.267,15.73,105.7133,13.9,15.15,16.86,0,110.4,13.27,14.70,290.2
"2009-03-30 00:11:00",754920,5.196,323,7.74,1.304,13.55,105.7133,13.9,15.11,17.24,0,110.4,13.27,14.70,285.0
"2009-03-30 00:11:30",754921,4.01,315.6,1.021,0.1,10.89,105.7133,13.9,14.94,17.42,0,110.4,13.31,14.70,277.6
"2009-03-30 00:12:00",754922,3.947,320.2,2.674,0.106,10.95,105.7133,13.9,14.94,18,0,110.4,13.31,14.70,282.2
"2009-03-30 00:12:30",754923,5.557,332.9,6.887,1.276,13.46,105.7029,13.87,15.08,18.35,0,110.4,13.27,14.67,294.9
"2009-03-30 00:13:00",754924,4.57,323.5,2.797,0.571,11.29,105.6804,13.81,14.93,18.59,0,110.4,13.31,14.61,285.5
"2009-03-30 00:13:30",754925,5.375,323.5,1.208,0.343,11.3,105.6795,13.81,14.89,18.86,0,110.4,13.31,14.61,285.5
"2009-03-30 00:14:00",754926,6.619,324.8,4.778,1.188,12.98,105.6671,13.78,15.02,19.66,0,110.4,13.27,14.58,286.8
"2009-03-30 00:14:30",754927,6.425,319.1,6.557,1.132,12.83,105.6463,13.73,14.97,19.45,0,110.4,13.27,14.53,281.1
"2009-03-30 00:15:00",754928,7.311,320.1,6.59,1.347,15.3,105.6372,13.7,15.12,18.9,0,110.4,13.27,14.50,282.1
"2009-03-30 00:15:30",754929,7.647,322.9,5.763,1.211,15.6,105.6119,13.64,15.01,18.07,0,110.4,13.27,14.44,284.9
"2009-03-30 00:16:00",754930,5.418,316.4,2.676,0.415,11.41,105.5989,13.61,14.76,17.99,0,110.4,13.3,14.41,278.4
"2009-03-30 00:16:30",754931,5.519,322.1,3.648,0.37,11.12,105.5781,13.55,14.74,18.27,0,110.4,13.3,14.35,284.1
"2009-03-30 00:17:00",754932,6.005,331.7,7.361,1.163,13.29,105.5691,13.53,14.78,18.81,0,110.4,13.27,14.33,293.7
"2009-03-30 00:17:30",754933,5.223,328.7,6.001,1.067,12.89,105.5448,13.47,14.85,19.1,0,110.4,13.27,14.27,290.7
"2009-03-30 00:18:00",754934,5.715,322.1,5.369,0.651,11.88,105.5434,13.46,14.64,18.9,0,110.4,13.27,14.26,284.1
"2009-03-30 00:18:30",754935,6.498,333.7,8.08,1.09,13.46,105.5201,13.4,14.68,20.34,0,110.4,13.27,14.20,295.7
"2009-03-30 00:19:00",754936,5.892,334.4,5.068,1.739,12.89,105.5105,13.38,14.71,21.34,0,110.4,13.27,14.18,296.4
"2009-03-30 00:19:30",754937,8.63,339.9,7.446,1.16,15.15,105.482,13.31,14.78,21.68,0,110.4,13.27,14.10,301.9
"2009-03-30 00:20:00",754938,9.43,332.7,6.292,1.18,15.29,105.4761,13.29,14.71,21.07,0,110.4,13.27,14.09,294.7
"2009-03-30 00:20:30",754939,6.937,325.6,2.425,0.201,11.32,105.4519,13.23,14.52,20.31,0,110.4,13.31,14.03,287.6
"2009-03-30 00:21:00",754940,7.092,325.7,3.457,0.752,11.39,105.4437,13.21,14.44,20.35,0,110.4,13.27,14.01,287.7
"2009-03-30 00:21:30",754941,7.699,324.6,5.863,1.009,12.35,105.4181,13.14,14.39,19.85,0,110.4,13.27,13.94,286.6
"2009-03-30 00:22:00",754942,8.43,324.7,8.92,1.315,13.95,105.4136,13.13,14.5,19.49,0,110.4,13.28,13.93,286.7
"2009-03-30 00:22:30",754943,7.025,319,7.507,0.95,12.73,105.3906,13.07,14.44,19.53,0,110.4,13.28,13.87,281.0
"2009-03-30 00:23:00",754944,8.02,322,7.745,1.599,12.88,105.3874,13.06,14.34,19.85,0,110.4,13.28,13.86,284.0
"2009-03-30 00:23:30",754945,9.67,321.8,8.9,1.473,15.07,105.3582,12.99,14.51,19.73,0,110.4,13.28,13.79,283.8
"2009-03-30 00:24:00",754946,9,323.2,7.569,1.438,14.52,105.3515,12.97,14.38,19.51,0,110.4,13.28,13.77,285.2
"2009-03-30 00:24:30",754947,7.249,324.5,5.626,1.668,13.27,105.3299,12.92,14.22,19.45,0,110.4,13.28,13.71,286.5
"2009-03-30 00:25:00",754948,6.65,323.6,4.097,0.552,10.95,105.3177,12.89,14.09,20.01,0,110.4,13.28,13.68,285.6
"2009-03-30 00:25:30",754949,5.773,327.6,3.658,0.393,11.32,105.3014,12.84,14.17,20.68,0,110.4,13.28,13.64,289.6
"2009-03-30 00:26:00",754950,6.974,330.6,5.396,1.372,13.12,105.2978,12.83,14.03,21.38,0,110.4,13.28,13.63,292.6
"2009-03-30 00:26:30",754951,6.948,331.2,6.643,1.308,13.06,105.275,12.78,14.1,21.72,0,110.4,13.28,13.57,293.2
"2009-03-30 00:27:00",754952,6.497,322.4,7.06,1.074,12.88,105.2649,12.75,14.06,22.38,0,110.4,13.28,13.55,284.4
"2009-03-30 00:27:30",754953,7.746,317.5,15.32,1.186,14.89,105.2418,12.69,14.08,21.4,0,110.4,13.28,13.49,279.5
"2009-03-30 00:28:00",754954,10,327.6,9.76,1.585,14.77,105.2271,12.65,14.01,20.66,0,110.4,13.28,13.45,289.6
"2009-03-30 00:28:30",754955,7.421,323.6,5.029,0.54,11.06,105.208,12.6,13.87,21.25,0,110.4,13.28,13.40,285.6
"2009-03-30 00:29:00",754956,7.341,327,3.183,0.578,10.93,105.1922,12.56,13.74,21.29,0,110.4,13.32,13.36,289.0
"2009-03-30 00:29:30",754957,7.262,320.5,5.967,0.791,11.63,105.1742,12.52,13.86,21.32,0,110.4,13.32,13.31,282.5
"2009-03-30 00:30:00",754958,7.839,323.9,8.16,1.355,13.79,105.1558,12.47,13.79,20.77,0,110.4,13.28,13.27,285.9
"2009-03-30 00:30:30",754959,8.36,316.6,7.209,1.021,12.32,105.1403,12.43,13.71,20.86,0,110.4,13.29,13.23,278.6
"2009-03-30 00:31:00",754960,9.42,320.7,6.983,1.451,15.52,105.137,12.42,13.77,19.97,0,110.4,13.29,13.22,282.7
"2009-03-30 00:31:30",754961,7.37,328.2,6.865,1.382,12.68,105.1088,12.35,13.64,20.3,0,110.4,13.29,13.15,290.2
"2009-03-30 00:32:00",754962,8.5,319.9,10.06,1.535,14.47,105.1065,12.35,13.65,20.62,0,110.4,13.28,13.14,281.9
"2009-03-30 00:32:30",754963,7.781,317.6,5.24,0.803,12.48,105.0989,12.33,13.67,19.55,0,110.3,13.28,13.12,279.6
"2009-03-30 00:33:00",754964,7.373,319.7,6.397,0.745,11.04,105.0795,12.28,13.45,19.58,0,110.4,13.28,13.07,281.7
"2009-03-30 00:33:30",754965,8.92,311.6,5.004,1.261,12.22,105.0727,12.26,13.56,19.18,0,110.3,13.29,13.05,273.6
"2009-03-30 00:34:00",754966,11.64,320.4,7.226,1.168,15.11,105.0707,12.25,13.53,16.6,0,110.3,13.28,13.05,282.4
"2009-03-30 00:34:30",754967,9.76,318.2,7.598,1.606,13.95,105.0569,12.22,13.51,17.06,0,110.3,13.28,13.01,280.2
"2009-03-30 00:35:00",754968,8.97,321.8,7.657,1.299,13.62,105.0394,12.17,13.48,18.44,0,110.3,13.28,12.97,283.8
"2009-03-30 00:35:30",754969,9.91,314.3,7.773,1.434,12.3,105.0389,12.17,13.5,19.12,0,110.3,13.28,12.97,276.3
"2009-03-30 00:36:00",754970,10.62,319.3,6.925,1.041,13.62,105.0398,12.17,13.39,18.25,0,110.3,13.28,12.97,281.3
"2009-03-30 00:36:30",754971,9.95,314,6.072,1.14,11.77,105.0401,12.17,13.39,18.74,0,110.3,13.32,12.97,276.0
"2009-03-30 00:37:00",754972,11.04,321.1,8.86,1.909,13.53,105.0387,12.17,13.44,18.75,0,110.3,13.29,12.97,283.1
"2009-03-30 00:37:30",754973,12.01,321,7.799,1.345,14.49,105.0298,12.15,13.38,18.1,0,110.4,13.29,12.94,283.0
"2009-03-30 00:38:00",754974,10.17,324.9,9.64,1.207,15.36,105.0237,12.13,13.49,19.13,0,110.3,13.29,12.93,286.9
"2009-03-30 00:38:30",754975,10.74,319.6,8.59,1.582,13.94,105.0205,12.12,13.38,19.24,0,110.3,13.29,12.92,281.6
"2009-03-30 00:39:00",754976,12.71,321.5,5.494,1.34,13.75,105.0237,12.13,13.29,18.03,0,110.3,13.29,12.93,283.5
"2009-03-30 00:39:30",754977,10.97,310.2,4.811,1.047,12.14,105.029,12.15,13.31,17.66,0,110.3,13.29,12.94,272.2
"2009-03-30 00:40:00",754978,10.78,314.8,7.898,2.747,13.27,105.0305,12.15,13.22,18.18,0,110.3,13.29,12.94,276.8
"2009-03-30 00:40:30",754979,8.92,320.2,10.45,1.132,13.34,105.0332,12.16,13.26,20.28,0,110.3,13.29,12.95,282.2
"2009-03-30 00:41:00",754980,11.24,318.8,5.743,1.994,14.78,105.0282,12.14,13.36,20.3,0,110.3,13.29,12.94,280.8
"2009-03-30 00:41:30",754981,10.27,319.2,10.44,1.25,15.39,105.0117,12.1,13.42,18.8,0,110.3,13.29,12.90,281.2
"2009-03-30 00:42:00",754982,9.21,319.8,10.62,1.616,12.62,105.0047,12.08,13.19,19.12,0,110.3,13.29,12.88,281.8
"2009-03-30 00:42:30",754983,9.72,325.6,12.85,1.248,12.5,105.0065,12.09,13.16,20.41,0,110.3,13.29,12.88,287.6
"2009-03-30 00:43:00",754984,7.375,324.8,7.301,1.133,11.08,105.0062,12.09,13.2,21.86,0,110.3,13.29,12.88,286.8
"2009-03-30 00:43:30",754985,8.42,333.7,9.77,1.884,12.88,105.0068,12.09,13.18,22.4,0,110.3,13.29,12.88,295.7
"2009-03-30 00:44:00",754986,7.906,329.7,7.735,1.146,12.83,104.9935,12.06,13.22,23.42,0,110.3,13.3,12.85,291.7
"2009-03-30 00:44:30",754987,9.9,333.1,7.383,1.598,14.27,104.9738,12.01,13.29,22.85,0,110.3,13.3,12.80,295.1
"2009-03-30 00:45:00",754988,11.02,332.1,6.862,1.289,15.62,104.9729,12,13.35,20.77,0,110.3,13.3,12.80,294.1
"2009-03-30 00:45:30",754989,9.63,323.5,7.226,1.433,13.16,104.9693,11.99,13.11,19.45,0,110.3,13.3,12.79,285.5
"2009-03-30 00:46:00",754990,8.38,326,3.018,0.885,10.58,104.9456,11.93,13.02,21.37,0,110.3,13.33,12.73,288.0
"2009-03-30 00:46:30",754991,10.24,334.9,6.719,0.871,12.94,104.9391,11.92,13.17,22.8,0,110.3,13.3,12.71,296.9
"2009-03-30 00:47:00",754992,6.968,334,5.16,1.192,11.13,104.9391,11.92,13.09,23.14,0,110.3,13.3,12.71,296.0
"2009-03-30 00:47:30",754993,9.58,333.4,7.733,1.477,13.55,104.9197,11.87,13.03,22.64,0,110.3,13.3,12.66,295.4
"2009-03-30 00:48:00",754994,10.24,344.5,13.16,0.848,14.44,104.9053,11.83,13.16,22.31,0,110.3,13.3,12.62,306.5
"2009-03-30 00:48:30",754995,9.54,346.7,9.19,1.544,14.38,104.9044,11.83,13.2,24.49,0,110.3,13.3,12.62,308.7
"2009-03-30 00:49:00",754996,8.41,334.1,7.305,1.98,12.08,104.8788,11.76,13.01,22.23,0,110.3,13.29,12.56,296.1
"2009-03-30 00:49:30",754997,7.763,330.9,8.81,1.624,11.14,104.8714,11.74,12.88,21.73,0,110.2,13.3,12.54,292.9
"2009-03-30 00:50:00",754998,7.518,346.1,12.78,0.731,11.98,104.8683,11.74,12.84,22.62,0,110.3,13.3,12.53,308.1
"2009-03-30 00:50:30",754999,8.36,351.5,8.03,1.081,13.25,104.8449,11.68,12.96,24.48,0,110.3,13.3,12.47,313.5
"2009-03-30 00:51:00",755000,5.723,351.9,8.27,2.167,10.82,104.8376,11.66,12.78,26.68,0,110.3,13.33,12.45,313.9
"2009-03-30 00:51:30",755001,11.82,340.3,7.63,1.531,14.38,104.8221,11.62,12.95,24.71,0,110.3,13.3,12.41,302.3
"2009-03-30 00:52:00",755002,12.41,347,7.049,1.124,15.27,104.8044,11.57,13.02,24,0,110.3,13.3,12.36,309.0
"2009-03-30 00:52:30",755003,10.54,346.8,20.64,2.776,14.78,104.8044,11.57,12.93,23.02,0,110.3,13.3,12.36,308.8
"2009-03-30 00:53:00",755004,5.72,359.8,13.67,1.095,10.96,104.7856,11.52,12.67,25.61,0,110.3,13.3,12.32,321.8
"2009-03-30 00:53:30",755005,6.876,346.8,13.04,1.582,12.74,104.7723,11.49,12.79,24.89,0,110.3,13.3,12.28,308.8
"2009-03-30 00:54:00",755006,4.897,11.74,14.13,1.98,12.01,104.7762,11.5,12.78,25.87,0,110.2,13.31,12.29,333.7
"2009-03-30 00:54:30",755007,4.867,2.752,13.68,1.742,10.46,104.7618,11.46,12.58,28,0,110.2,13.35,12.25,324.8
"2009-03-30 00:55:00",755008,6.261,349,7.184,1.06,10.83,104.7482,11.43,12.56,26.72,0,110.2,13.31,12.22,311.0
"2009-03-30 00:55:30",755009,6.095,21.38,12.24,1.493,14.68,104.7465,11.42,12.8,27.75,0,110.2,13.31,12.22,343.4
"2009-03-30 00:56:00",755010,6.742,20.94,7.437,1.141,14.66,104.7325,11.39,12.83,31.45,0,110.3,13.31,12.18,342.9
"2009-03-30 00:56:30",755011,6.408,22.88,6.404,1.405,10.52,104.7156,11.34,12.62,33.14,0,110.3,13.31,12.14,344.9
"2009-03-30 00:57:00",755012,7.788,27.69,9.27,1.778,11.87,104.7139,11.34,12.65,36.04,0,110.2,13.31,12.13,349.7
"2009-03-30 00:57:30",755013,7.316,31.86,4.456,1.065,10.08,104.6912,11.28,12.52,35.06,0,110.2,13.31,12.07,353.9
"2009-03-30 00:58:00",755014,8.45,43.51,5.795,1.174,12.27,104.6717,11.23,12.47,36.92,0,110.2,13.31,12.02,5.5
"2009-03-30 00:58:30",755015,7.298,38.18,6.636,1.77,12.06,104.6397,11.15,12.52,36.65,0,110.2,13.32,11.94,0.2
"2009-03-30 00:59:00",755016,8.38,40.09,6.279,1.028,14.4,104.6135,11.08,12.62,38.28,0,110.2,13.32,11.87,2.1
"2009-03-30 00:59:30",755017,9.02,37.65,7.542,1.309,12.16,104.582,11,12.46,37.09,0,110.2,13.32,11.79,359.6
"2009-03-30 01:00:00",755018,7.69,32.57,2.434,0.698,10.05,104.5522,10.93,12.19,33.73,0,110.2,13.35,11.72,354.6
"2009-03-30 01:00:30",755019,8.88,33.32,7.986,0.997,12.31,104.5175,10.84,12.21,33.8,0,110.2,13.32,11.63,355.3
"2009-03-30 01:01:00",755020,6.984,35.57,9.45,1.851,12.6,104.4887,10.76,12.18,33.07,0,110.2,13.32,11.55,357.6
"2009-03-30 01:01:30",755021,7.139,34.58,7.007,1.653,11.59,104.4636,10.7,11.97,32.13,0,110.2,13.32,11.49,356.6
"2009-03-30 01:02:00",755022,9.85,42.49,7.589,1.542,14.58,104.4334,10.62,12.12,31.84,0,110.2,13.32,11.41,4.5
"2009-03-30 01:02:30",755023,10.9,46.49,7.168,1.663,13.23,104.4103,10.56,12.11,36.09,0,110.2,13.32,11.35,8.5
"2009-03-30 01:03:00",755024,10.64,45.59,7.533,1.759,12.94,104.377,10.48,11.95,38.78,0,110.2,13.32,11.27,7.6
"2009-03-30 01:03:30",755025,10.13,43.34,8.39,1.795,11.88,104.3432,10.39,11.79,38.61,0,110.2,13.32,11.18,5.3
"2009-03-30 01:04:00",755026,7.948,39.5,6.431,1.165,10.7,104.3029,10.29,11.77,40.69,0,110.2,13.32,11.08,1.5
"2009-03-30 01:04:30",755027,8.17,47.85,8.4,1.576,11.66,104.2668,10.2,11.67,42.19,0,110.2,13.32,10.98,9.8
"2009-03-30 01:05:00",755028,8.82,57.92,5.921,1.115,13.19,104.2329,10.11,11.7,40.26,0,110.2,13.32,10.90,19.9
"2009-03-30 01:05:30",755029,8.57,45.44,12.42,1.982,13.18,104.2076,10.04,11.61,39.54,0,110.2,13.32,10.83,7.4
"2009-03-30 01:06:00",755030,10.37,41.91,6.241,1.72,11.26,104.1706,9.95,11.28,33.62,0,110.2,13.32,10.74,3.9
"2009-03-30 01:06:30",755031,6.083,30.39,15.86,1.809,10.76,104.1475,9.89,11.34,38.35,0,110.2,13.32,10.68,352.4
"2009-03-30 01:07:00",755032,7.312,25.75,9.04,1.927,13.01,104.0998,9.77,11.28,42.49,0,110.2,13.32,10.56,347.8
"2009-03-30 01:07:30",755033,9.05,29.43,7.224,1.816,13.15,104.0781,9.71,11.16,35.86,0,110.2,13.32,10.50,351.4
"2009-03-30 01:08:00",755034,8.83,32.92,7.421,1.278,14.45,104.0674,9.69,11.1,31.68,0,110.2,13.32,10.47,354.9
"2009-03-30 01:08:30",755035,5.079,14.11,11.06,1.868,11.01,104.0621,9.67,10.95,31.25,0,110.2,13.32,10.46,336.1
"2009-03-30 01:09:00",755036,6.408,6.008,23.8,1.31,10.05,104.0627,9.67,10.85,30.96,0,110.2,13.36,10.46,328.0
"2009-03-30 01:09:30",755037,6.57,29.81,7.716,1.256,12.6,104.0696,9.69,10.96,32.05,0,110.2,13.33,10.48,351.8
"2009-03-30 01:10:00",755038,4.74,18.44,9.39,2.213,12.12,104.0826,9.73,10.87,30.4,0,110.2,13.33,10.51,340.4
"2009-03-30 01:10:30",755039,6.713,22.65,12.44,1.331,12.46,104.0873,9.74,10.88,29.03,0,110.2,13.33,10.52,344.6
"2009-03-30 01:11:00",755040,8.72,45.84,8.28,1.357,14.5,104.0948,9.76,11.04,29.03,0,110.2,13.33,10.54,7.8
"2009-03-30 01:11:30",755041,5.228,15.6,15.51,2.721,13.49,104.1101,9.8,10.95,28.78,0,110.2,13.33,10.58,337.6
"2009-03-30 01:12:00",755042,7.485,353.9,6.331,2.323,12.41,104.12,9.82,10.94,28.64,0,110.2,13.33,10.61,315.9
"2009-03-30 01:12:30",755043,4.998,3.941,14.77,1.702,10.08,104.122,9.83,10.8,28.35,0,110.2,13.37,10.61,325.9
"2009-03-30 01:13:00",755044,5.723,19.2,5.583,1.217,10.47,104.1456,9.89,10.81,28.07,0,110.2,13.37,10.67,341.2
"2009-03-30 01:13:30",755045,4.862,0.464,12.03,1.36,13.22,104.1606,9.92,11.02,27.75,0,110.2,13.34,10.71,322.5
"2009-03-30 01:14:00",755046,4.932,354.3,5.165,1.026,11.01,104.1658,9.94,10.9,27.94,0,110.2,13.34,10.72,316.3
"2009-03-30 01:14:30",755047,7.023,21.98,9.43,1.464,14.85,104.192,10.01,11.13,28.42,0,110.2,13.34,10.79,344.0
"2009-03-30 01:15:00",755048,6.563,22.5,7.285,1.285,15.12,104.1974,10.02,11.17,27.99,0,110.2,13.34,10.81,344.5
"2009-03-30 01:15:30",755049,4.402,15.54,11.82,1.515,10.79,104.1994,10.02,11.02,28.11,0,110.2,13.34,10.81,337.5
"2009-03-30 01:16:00",755050,3.629,16.56,5.651,0.816,9.56,104.2189,10.07,10.96,29.56,0,110.2,13.38,10.86,338.6
"2009-03-30 01:16:30",755051,4.427,28.14,4.832,0.655,9.35,104.2299,10.1,10.97,29.85,0,110.2,13.38,10.89,350.1
"2009-03-30 01:17:00",755052,3.614,17.34,13.46,1.63,9.88,104.2316,10.11,11,30.11,0,110.1,13.34,10.89,339.3
"2009-03-30 01:17:30",755053,5.565,345.1,8.2,1.62,12.77,104.2316,10.11,11.17,30.37,0,110.2,13.34,10.89,307.1
"2009-03-30 01:18:00",755054,5.901,358.5,12.37,1.351,14.24,104.2316,10.11,11.29,29.34,0,110.1,13.34,10.89,320.5
"2009-03-30 01:18:30",755055,7.372,31.97,15.18,2.369,13.65,104.2316,10.11,11.3,30.41,0,110.1,13.34,10.89,354.0
"2009-03-30 01:19:00",755056,8.21,37.52,11.51,2.567,12.47,104.2316,10.11,11.3,31.8,0,110.2,13.34,10.89,359.5
"2009-03-30 01:19:30",755057,7.08,42.3,5.955,0.904,9.76,104.2316,10.11,11.1,34.31,0,110.2,13.34,10.89,4.3
"2009-03-30 01:20:00",755058,7.28,37.3,5.174,0.994,9.54,104.2231,10.08,11.12,33.74,0,110.1,13.38,10.87,359.3
"2009-03-30 01:20:30",755059,5.775,22.28,12.55,1.893,12.54,104.1997,10.02,11.1,30.71,0,110.1,13.34,10.81,344.3
"2009-03-30 01:21:00",755060,6.002,18.73,13.84,1.705,12.24,104.1977,10.02,11.23,30.86,0,110.1,13.34,10.81,340.7
"2009-03-30 01:21:30",755061,6.844,13.82,10.08,1.983,13.94,104.1977,10.02,11.25,30.57,0,110.1,13.34,10.81,335.8
"2009-03-30 01:22:00",755062,9.41,353.2,9.08,1.517,13.53,104.1966,10.02,11.27,31.31,0,110.1,13.34,10.80,315.2
"2009-03-30 01:22:30",755063,6.939,347.6,4.634,1.855,11.68,104.1946,10.01,11.18,30.63,0,110.1,13.34,10.80,309.6
"2009-03-30 01:23:00",755064,6.364,341.3,8.97,1.051,10.97,104.1788,9.97,11.01,29.55,0,110.1,13.34,10.76,303.3
"2009-03-30 01:23:30",755065,5.432,325.2,8.5,0.336,9.2,104.1717,9.95,10.96,30.25,0,110.1,13.37,10.74,287.2
"2009-03-30 01:24:00",755066,5.068,329.5,10.38,1.097,10.86,104.1689,9.95,11.07,31.1,0,110.1,13.34,10.73,291.5
"2009-03-30 01:24:30",755067,6.366,341.4,18.82,1.578,13,104.165,9.94,11.24,31.12,0,110.1,13.34,10.72,303.4
"2009-03-30 01:25:00",755068,3.752,321,32.89,1.584,11.25,104.1638,9.93,10.98,31.59,0,110.1,13.34,10.72,283.0
"2009-03-30 01:25:30",755069,2.684,19.4,16.47,1.429,11.61,104.1593,9.92,11.19,33.39,0,110.1,13.34,10.71,341.4
"2009-03-30 01:26:00",755070,6.498,338.4,8.44,1.945,11.53,104.1303,9.85,11.11,32.84,0,110.1,13.34,10.63,300.4
"2009-03-30 01:26:30",755071,3.407,5.884,11.49,1.158,9.08,104.13,9.85,10.93,32.72,0,110.1,13.38,10.63,327.9
"2009-03-30 01:27:00",755072,5.443,5,16.52,1.224,9.09,104.13,9.85,10.87,32.51,0,110.1,13.38,10.63,327.0
"2009-03-30 01:27:30",755073,5.086,338.9,7.909,1.412,9.69,104.13,9.85,10.9,31.11,0,110.1,13.38,10.63,300.9
"2009-03-30 01:28:00",755074,4.728,356.9,19,1.935,13.36,104.13,9.85,11.11,31.38,0,110.1,13.35,10.63,318.9
"2009-03-30 01:28:30",755075,3.645,358.6,17.83,1.917,12.15,104.1309,9.85,11.01,31.09,0,110.1,13.35,10.64,320.6
"2009-03-30 01:29:00",755076,3.219,355.5,12.99,1.462,10.61,104.1315,9.85,10.92,31.75,0,110.1,13.35,10.64,317.5
"2009-03-30 01:29:30",755077,5.472,333.3,11.36,1.351,12.94,104.1284,9.84,11.11,32.2,0,110.1,13.35,10.63,295.3
"2009-03-30 01:30:00",755078,4.416,333.4,8.57,1.692,11.48,104.1257,9.84,10.96,31.02,0,110.1,13.35,10.62,295.4
"2009-03-30 01:30:30",755079,3.454,330,2.866,0.215,9.11,104.1267,9.84,10.84,30.86,0,110.1,13.39,10.62,292.0
"2009-03-30 01:31:00",755080,3.034,337.1,8.03,0.323,9.2,104.1251,9.83,10.82,30.86,0,110.1,13.39,10.62,299.1
"2009-03-30 01:31:30",755081,3.37,7.257,19.69,1.227,11.34,104.1155,9.81,10.89,30.86,0,110.1,13.35,10.60,329.3
"2009-03-30 01:32:00",755082,1.978,0.671,15.5,1.189,10.97,104.1143,9.81,10.97,31.17,0,110.1,13.35,10.59,322.7
"2009-03-30 01:32:30",755083,2.333,340.5,12.91,1.437,11.43,104.1149,9.81,10.99,31.6,0,110.1,13.35,10.59,302.5
"2009-03-30 01:33:00",755084,3.199,336.5,7.337,1.147,10.7,104.1193,9.82,10.81,31.64,0,110.1,13.35,10.61,298.5
"2009-03-30 01:33:30",755085,3.819,319.3,12.3,1.571,11.82,104.1206,9.82,10.97,32.18,0,110.1,13.35,10.61,281.3
"2009-03-30 01:34:00",755086,5.792,342.4,10.48,1.165,12.9,104.1162,9.81,11.01,32.22,0,110.1,13.35,10.60,304.4
"2009-03-30 01:34:30",755087,4.81,309.9,6.457,0.822,9.14,104.1124,9.8,10.84,31.81,0,110.1,13.35,10.59,271.9
"2009-03-30 01:35:00",755088,3.455,313.1,10.05,0.496,9.08,104.0992,9.77,10.76,31.38,0,110.1,13.39,10.55,275.1
"2009-03-30 01:35:30",755089,3.955,330.2,13.29,0.978,10.93,104.0966,9.76,10.91,31.14,0,110.1,13.36,10.55,292.2
"2009-03-30 01:36:00",755090,3.575,327.3,10.54,0.957,9.25,104.0975,9.76,10.81,31.87,0,110.1,13.36,10.55,289.3
"2009-03-30 01:36:30",755091,3.076,7.435,14.65,0.947,11.43,104.0972,9.76,10.79,32.21,0,110.1,13.36,10.55,329.4
"2009-03-30 01:37:00",755092,4.382,359.8,8.7,2.937,11.57,104.0967,9.76,10.92,32.06,0,110.1,13.36,10.55,321.8
"2009-03-30 01:37:30",755093,7.54,350.7,10.97,1.939,13.26,104.0899,9.74,10.98,30.54,0,110.1,13.36,10.53,312.7
"2009-03-30 01:38:00",755094,6.306,335.8,9.35,1.726,12.31,104.0829,9.73,10.91,30.55,0,110.1,13.35,10.51,297.8
"2009-03-30 01:38:30",755095,4.384,322.4,7.342,0.689,9.51,104.0758,9.71,10.75,30.5,0,110.1,13.35,10.49,284.4
"2009-03-30 01:39:00",755096,4.405,315.4,9.33,1.248,10.02,104.0772,9.71,10.8,30.47,0,110.1,13.35,10.50,277.4
"2009-03-30 01:39:30",755097,3.46,318.7,11.49,1.396,10.81,104.0704,9.69,10.73,30.7,0,110.1,13.35,10.48,280.7
"2009-03-30 01:40:00",755098,3.382,319.2,15.37,1.077,10.38,104.0645,9.68,10.79,30.88,0,110.1,13.35,10.46,281.2
"2009-03-30 01:40:30",755099,4.818,331.9,16.76,0.998,10.77,104.0637,9.68,10.69,30.87,0,110.1,13.35,10.46,293.9
"2009-03-30 01:41:00",755100,3.054,343.4,13.23,1.608,11.02,104.0637,9.68,10.87,31.2,0,110.1,13.35,10.46,305.4
"2009-03-30 01:41:30",755101,1.585,5.677,24.89,1.292,11.68,104.0637,9.68,10.92,31.17,0,110.1,13.35,10.46,327.7
"2009-03-30 01:42:00",755102,3.058,350.5,21.12,0.645,10.57,104.0637,9.68,10.69,30.93,0,110.1,13.35,10.46,312.5
"2009-03-30 01:42:30",755103,4.269,313.2,4.088,0.499,8.94,104.0637,9.68,10.74,30.75,0,110.1,13.39,10.46,275.2
"2009-03-30 01:43:00",755104,5.823,315.9,5.073,1.205,11,104.0628,9.67,10.8,30.62,0,110.1,13.36,10.46,277.9
"2009-03-30 01:43:30",755105,4.667,321.5,7.92,0.924,11.09,104.0577,9.66,10.81,30.7,0,110.1,13.37,10.45,283.5
"2009-03-30 01:44:00",755106,3.477,326.1,10.79,0.852,9.42,104.0512,9.65,10.65,30.62,0,110.1,13.37,10.43,288.1
"2009-03-30 01:44:30",755107,4.208,333.4,8.47,1.287,11.19,104.0394,9.61,10.72,30.84,0,110.1,13.37,10.40,295.4
"2009-03-30 01:45:00",755108,4.976,352.1,11.52,1.149,13.26,104.0315,9.59,10.9,31.18,0,110.1,13.37,10.38,314.1
"2009-03-30 01:45:30",755109,4.694,344.9,8.53,1.64,11.83,104.0298,9.59,10.84,31.65,0,110.1,13.37,10.38,306.9
"2009-03-30 01:46:00",755110,3.984,324,9.15,1.302,10.62,104.0298,9.59,10.79,32.31,0,110.1,13.37,10.38,286.0
"2009-03-30 01:46:30",755111,4.605,319.5,8.1,1.424,10.07,104.0298,9.59,10.67,32.14,0,110.1,13.37,10.38,281.5
"2009-03-30 01:47:00",755112,4.6,312,7.622,1.453,10.05,104.0298,9.59,10.75,32.36,0,110.1,13.37,10.38,274.0
"2009-03-30 01:47:30",755113,6.17,294.9,13.18,1.331,10.04,104.0292,9.59,10.61,32.18,0,110.1,13.37,10.37,256.9
"2009-03-30 01:48:00",755114,4.639,294.6,8.69,0.956,9.96,104.0233,9.57,10.74,32.16,0,110.1,13.37,10.36,256.6
"2009-03-30 01:48:30",755115,6.779,301.8,10.91,1.481,13.01,104.0143,9.55,10.8,32.07,0,110.1,13.37,10.34,263.8